Weather in Sednivka

Ukraine / Kirovohrad Region     47°58′00″N   32°26′38″E
temp.,
°C
wind,
m/s
gust,
m/s
humid.,
%
clouds,
%
prec.,
mm/h
press.,
hPa
HPBL,
m
19 april, mon
mon1900:00+10nne3462100 0.0 1016114
03:00+9nne3367100 0.0 101671
06:00+7nne2379100 0.0 101677
09:00+10nne3374100 0.0 1016419
12:00+13n115794 0.3 10151321
15:00+13ene1153100 0.7 10151331
18:00+12nne3567100 0.6 1014265
21:00+11ne4768100 0.6 1013249
20 april, tue
tue2000:00+10ne5970100 0.0 1012323
03:00+8ne5974100 0.0 1010232
06:00+8nne51078100 0.2 1008317
09:00+7nne61085100 2.0 1007457
12:00+8n81286100 1.8 1004611
15:00+9nnw81281100 2.6 1003920
18:00+9nnw71182100 0.5 1004992
21:00+9nw61180100 0.6 1007543
21 april, wed
wed2100:00+8wnw5983100 0.0 1008448
03:00+5w410925 0.0 1010221
06:00+4w37905 0.0 1012141
09:00+10w58605 0.0 1014884
12:00+13w574778 0.1 10142009
15:00+13wsw4646100 0.1 10151739
18:00+13sw455539 0.3 10151280
21:00+9ssw357823 0.6 101769
22 april, thu
thu2200:00+7ssw47925 0.0 1017144
03:00+7ssw36925 0.0 101898
06:00+6ssw35925 0.0 101875
09:00+12s56695 0.0 1019405
12:00+17ssw67475 0.1 10191864
15:00+15ssw5955100 0.2 1019446
18:00+15ssw475416 0.2 1019832
21:00+10s410735 0.3 1020218
23 april, fri
fri2300:00+8s4118433 0.1 1020251
03:00+8s5109265 0.4 1019267
06:00+7s4129312 0.1 1019272
09:00+12s711674 0.1 1018574
12:00+16ssw9115579 0.0 10181067
15:00+18ssw9104788 0.0 10162096
18:00+15ssw811586 0.3 10161000
21:00+11s51272100 0.3 1016440